Showing default

ION SCV-006, 52761

Orbit data source: Space-Track

ION SCV-006, 52761 is a payload satellite owned by D-ORBIT (IT) in SSO that was launched on Wed, 25 May 2022 UTC via an FALCON 9 launch vehicle from the Air Force Eastern Test Range (AFETR). Payload-class satellites include a variety of spacecraft equipped with specific instruments for various scientific and technological missions. These include communications satellites like Starlink; space stations such as the ISS; scientific satellites like the Hubble; Earth observation satellites from companies like Planet Labs, Umbra, and HawkEye 360; GPS; miniature CubeSats for education and research; and military/defense satellites.

Loading next visibility...
Identifier
52761, 2022-057AF
Orbit
SSO
Country
Flag of ITIT
Related business
Manufacturer
D-ORBIT
Mission
Operational Commercial Technology
Bus & Motor
ION-SC, PM200
Mass
220 kg wet, 150 kg dry
Launch date (UTC)
2022-05-25 (4 years ago)
Launch vehicle
FALCON 9
Launch site
Air Force Eastern Test Range (AFETR)
Object type
Payload
Rocket body
Debris
Shape & HBR
Box, 0.2 m
Radar Cross Section
0.240 m², Large (>1 m²)

Expand to show TLE details & history
Last TLE update: 17 hours ago

TLE from 17 hours ago
0 ION SCV-006
1 52761U 22057AF  25348.91503643  .00009369  00000-0  23350-3 0  9993
2 52761  97.5849 124.6895 0020727  60.7873 299.5443 15.40234760197701
Epoch: 2025-12-14T21:57Z
TLE epoch observation values (Epoch: 2025-12-14T21:57:39.147Z)
Latitude
0.00005°
Longitude
71.45527°
Altitude
441.575 km
Speed
7.651 km/s
True Right ascension
08h 18m 45s
True Declination
0° 00' 00"
Sunlit
Object was in full shadow at epoch
Visualization orbit readout
Latitude
Unknown
Longitude
Unknown
Altitude
Unknown
Speed
Unknown
Apparent Right ascension
Unknown
Apparent Declination
Unknown
Sunlit
N/A
Visualization observer readout
Local Sidereal Time
13:22:44
Azimuth
Unknown
Elevation
Unknown
Doppler factor
Unknown
Orbital elements
Apogee altitude
456.499 km
Perigee altitude
428.226 km
Semi-major axis
6,820.5 km
Eccentricity
0.00207
Inclination
97.5849°
RAAN
124.6895°
Arg. of periapsis
60.7873°
True anomaly
299.33741°
Mean anomaly
299.5443°
Eccentric anomaly
299.44088°
Mean motion
3.85318 °/min
Orbital period
93.43 mins
BSTAR
0.0002335
Loading maneuver chart data...
Computing Atmospheric mass density...

Documentation

Showing up to 5 results
|